"Pseudo-MPEC" for A11e5h8

Created 2024 Nov 20 4:31:01 UT using Find_Orb

Click here for an explanation of pseudo-MPECs

 
 Astrometry: 
     A11e5h8* C2024 11 11_cJ./QE/[4JAstrometry?Sx]^j\'W.97lR.yhXdMuh5*@Z9!Hd\T05
     A11e5h8  C2024 11 11gqZ%/Ja6'o*6';$9Y+4H@h!Wi#u%El_J/redacted;1lj[P/wfjlT05
     A11e5h8  C2024 11 11j)LuqNp5clickKF_NBeshereh$wD4/kXDAAu.1gRfornm(eAxT7#T05
     A11e5h8  C2024 11 11!wQw%e@0.e!g/v.^*tL7hss.;Kb,Nc)explanationY`y8toj(ZkT05

Station data:
(T05) ATLAS-HKO, Haleakala  (N20.707551 W156.257010)  US/Hawaii.  Observers
   L. Denneau, A. Heinze, H. Weiland, J. Tonry, H. Flewelling, A.
   Fitzsimmons, D. Young, B. Stalder. Measurers L. Denneau, A. Heinze, J.
   Tonry. 0.5-m f/2.0 Schmidt + CCD.

Orbital elements:  A11e5h8
   Perigee 2024 Oct 25.44506 TT = 10:40:53 (JD 2460608.94506)    AutoNEOCP
Epoch 2024 Nov 12.0 TT = JDT 2460626.5
M  64.79971496                      (J2000 equator)
n   3.69125342     Peri.    0.17765
a894995.663km      Node    44.23576
e   0.4474665      Incl.   33.36319
P  97.5260d        H   26.65    G   0.15   q 494515.002km  Q 0.00865972
2 of 4 observations 2024 Nov. 11 (14.3 min); mean residual 0".00
Residuals in arcseconds: 
241111 T05  .00   .00     241111 T05( 4.7-  1.0-)   
241111 T05( 1.7+  1.6-)   241111 T05  .00   .00     

Ephemerides (geocentric):
Date (UTC) HH   RA             Dec           delta  r     elong  mag
---- --------  ------------   ------------  ------ ------ -----  ---
2024 11 20 05  12 36 44.575   +20 26 09.70  .00724 .98452  60.8 20.7
2024 11 20 06  12 37 07.827   +20 23 16.67  .00724 .98450  60.7 20.7
2024 11 20 07  12 37 31.042   +20 20 23.60  .00725 .98448  60.6 20.7
2024 11 20 08  12 37 54.222   +20 17 30.48  .00725 .98446  60.6 20.7
2024 11 20 09  12 38 17.365   +20 14 37.32  .00726 .98445  60.5 20.7
2024 11 20 10  12 38 40.473   +20 11 44.10  .00726 .98443  60.4 20.7
2024 11 20 11  12 39 03.545   +20 08 50.85  .00727 .98441  60.4 20.7
2024 11 20 12  12 39 26.581   +20 05 57.55  .00727 .98439  60.3 20.7
2024 11 20 13  12 39 49.583   +20 03 04.20  .00728 .98438  60.3 20.7
2024 11 20 14  12 40 12.549   +20 00 10.81  .00729 .98436  60.2 20.7
2024 11 20 15  12 40 35.480   +19 57 17.38  .00729 .98434  60.1 20.7
2024 11 20 16  12 40 58.377   +19 54 23.91  .00730 .98432  60.1 20.7
2024 11 20 17  12 41 21.239   +19 51 30.40  .00730 .98431  60.0 20.7
2024 11 20 18  12 41 44.066   +19 48 36.84  .00731 .98429  59.9 20.8
2024 11 20 19  12 42 06.859   +19 45 43.25  .00731 .98427  59.9 20.8
2024 11 20 20  12 42 29.619   +19 42 49.61  .00732 .98425  59.8 20.8
2024 11 20 21  12 42 52.344   +19 39 55.94  .00732 .98424  59.8 20.8
2024 11 20 22  12 43 15.035   +19 37 02.23  .00733 .98422  59.7 20.8
2024 11 20 23  12 43 37.693   +19 34 08.47  .00733 .98420  59.6 20??
2024 11 21 00  12 44 00.317   +19 31 14.69  .00734 .98418  59.6 20??
2024 11 21 01  12 44 22.908   +19 28 20.86  .00734 .98416  59.5 20??
2024 11 21 02  12 44 45.466   +19 25 27.00  .00735 .98415  59.4 20??
2024 11 21 03  12 45 07.991   +19 22 33.10  .00735 .98413  59.4 20??
2024 11 21 04  12 45 30.482   +19 19 39.17  .00736 .98411  59.3 20??
2024 11 21 05  12 45 52.942   +19 16 45.20  .00736 .98409  59.3 20??
2024 11 21 06  12 46 15.368   +19 13 51.20  .00737 .98408  59.2 20??
2024 11 21 07  12 46 37.763   +19 10 57.17  .00737 .98406  59.1 20??
2024 11 21 08  12 47 00.125   +19 08 03.10  .00738 .98404  59.1 20??
2024 11 21 09  12 47 22.455   +19 05 09.00  .00738 .98403  59.0 20??
2024 11 21 10  12 47 44.753   +19 02 14.87  .00739 .98401  59.0 20??
2024 11 21 11  12 48 07.019   +18 59 20.70  .00739 .98399  58.9 20??
2024 11 21 12  12 48 29.254   +18 56 26.51  .00740 .98397  58.8 20??
2024 11 21 13  12 48 51.457   +18 53 32.28  .00740 .98396  58.8 20??
2024 11 21 14  12 49 13.629   +18 50 38.03  .00741 .98394  58.7 20??
2024 11 21 15  12 49 35.769   +18 47 43.74  .00741 .98392  58.7 20??
2024 11 21 16  12 49 57.879   +18 44 49.43  .00742 .98390  58.6 20??
2024 11 21 17  12 50 19.957   +18 41 55.09  .00742 .98389  58.5 20??
2024 11 21 18  12 50 42.005   +18 39 00.71  .00743 .98387  58.5 20??
2024 11 21 19  12 51 04.022   +18 36 06.32  .00743 .98385  58.4 20??
2024 11 21 20  12 51 26.009   +18 33 11.89  .00744 .98383  58.4 20??
2024 11 21 21  12 51 47.965   +18 30 17.44  .00744 .98382  58.3 20??
2024 11 21 22  12 52 09.891   +18 27 22.96  .00745 .98380  58.2 20??
2024 11 21 23  12 52 31.787   +18 24 28.45  .00745 .98378  58.2 20??
2024 11 22 00  12 52 53.653   +18 21 33.92  .00746 .98377  58.1 20??
2024 11 22 01  12 53 15.490   +18 18 39.37  .00746 .98375  58.1 20??
2024 11 22 02  12 53 37.296   +18 15 44.79  .00747 .98373  58.0 21??
2024 11 22 03  12 53 59.073   +18 12 50.19  .00747 .98371  57.9 21??
2024 11 22 04  12 54 20.821   +18 09 55.56  .00748 .98370  57.9 21??